GW4853 Weather Reports


time (UTC)temp
F
wind
direction
speed
knots
gust
knots
rain 1hr
in
rain 24hr
in
rain mn
in
humidity
%
barometer
mb
20260510164209 67 338 1.7 3.5 0.00 0.00 0.00 76 1015.2
20260510163704 66 29 1.7 1.7 0.00 0.00 0.00 76 1015.2
20260510163200 66 0 1.7 2.6 0.00 0.00 0.00 74 1015.1
20260510162700 67 317 2.6 3.5 0.00 0.00 0.00 71 1015.1
20260510162157 67 324 0.0 0.9 0.00 0.00 0.00 73 1015.2
20260510161652 67 6 1.7 2.6 0.00 0.00 0.00 71 1015.2
20260510161149 68 262 0.9 2.6 0.00 0.00 0.00 69 1015.2
20260510160646 68 327 0.9 2.6 0.00 0.00 0.00 70 1015.0
20260510160142 67 238 0.9 1.7 0.00 0.00 0.00 71 1014.8
20260510155638 66 357 2.6 2.6 0.00 0.00 0.00 73 1015.0
20260510155134 66 328 1.7 2.6 0.00 0.00 0.00 74 1014.9
20260510154630 66 318 1.7 2.6 0.00 0.00 0.00 76 1015.0
20260510154125 65 332 2.6 3.5 0.00 0.00 0.00 75 1014.7
20260510153621 65 3 1.7 2.6 0.00 0.00 0.00 76 1014.7
20260510153117 65 336 0.0 1.7 0.00 0.00 0.00 76 1014.7
20260510152614 65 1 0.0 2.6 0.00 0.00 0.00 76 1014.4
20260510152110 64 315 0.9 1.7 0.00 0.00 0.00 77 1014.6
20260510151607 64 329 1.7 2.6 0.00 0.00 0.00 77 1014.7
20260510151105 64 344 0.9 1.7 0.00 0.00 0.00 77 1014.7
20260510150600 64 352 0.0 0.9 0.00 0.00 0.00 78 1014.5
20260510150055 64 20 0.0 3.5 0.00 0.00 0.00 76 1014.3
20260510145553 64 358 0.0 0.9 0.00 0.00 0.00 78 1014.2
20260510145049 64 6 0.0 0.9 0.00 0.00 0.00 78 1014.3
20260510144546 64 34 0.9 0.9 0.00 0.00 0.00 78 1014.1
20260510144042 64 33 0.0 1.7 0.00 0.00 0.00 74 1014.1
20260510143537 65 4 0.0 0.9 0.00 0.00 0.00 74 1014.4
20260510143034 65 332 2.6 3.5 0.00 0.00 0.00 73 1014.7
20260510142530 66 326 1.7 1.7 0.00 0.00 0.00 72 1014.7
20260510142027 67 155 0.9 1.7 0.00 0.00 0.00 71 1014.6
20260510141524 67 324 0.9 1.7 0.00 0.00 0.00 71 1014.7
20260510141021 66 244 0.9 5.2 0.00 0.00 0.00 71 1015.0
20260510140517 66 127 1.7 2.6 0.00 0.00 0.00 70 1014.7
20260510140011 67 219 0.9 1.7 0.00 0.00 0.00 70 1014.7
20260510135507 66 263 0.0 1.7 0.00 0.00 0.00 70 1014.7
20260510135004 66 262 0.9 2.6 0.00 0.00 0.00 71 1014.8
20260510134501 65 315 2.6 6.1 0.00 0.00 0.00 73 1014.5
20260510133958 64 166 3.5 3.5 0.00 0.00 0.00 74 1014.4
20260510133453 65 134 1.7 1.7 0.00 0.00 0.00 75 1014.2
20260510132949 64 132 0.9 1.7 0.00 0.00 0.00 76 1014.3
20260510132447 64 215 0.9 2.6 0.00 0.00 0.00 77 1014.3
20260510131943 63 209 1.7 1.7 0.00 0.00 0.00 78 1014.2
20260510131441 63 144 0.0 0.9 0.00 0.00 0.00 79 1013.9
20260510130938 63 145 0.9 0.9 0.00 0.00 0.00 79 1013.7
20260510130434 63 143 0.9 1.7 0.00 0.00 0.00 78 1013.7
20260510125932 63 140 0.9 0.9 0.00 0.00 0.00 78 1013.7
20260510125427 63 145 1.7 1.7 0.00 0.00 0.00 79 1013.8
20260510124925 63 107 0.0 0.9 0.00 0.00 0.00 81 1013.7
20260510124421 62 108 0.9 0.9 0.00 0.00 0.00 79 1013.7
20260510123918 62 106 0.0 0.9 0.00 0.00 0.00 81 1013.6
20260510123413 61 106 0.0 0.0 0.00 0.00 0.00 83 1013.6
20260510122910 60 105 0.9 0.9 0.00 0.00 0.00 85 1013.3
20260510122405 60 105 0.0 0.9 0.00 0.00 0.00 86 1013.3
20260510121901 60 106 0.9 0.9 0.00 0.00 0.00 85 1013.2
20260510121359 59 101 0.9 1.7 0.00 0.00 0.00 86 1013.4
20260510120856 59 112 0.9 0.9 0.00 0.00 0.00 87 1013.4
20260510120354 59 97 0.9 0.9 0.00 0.00 0.00 87 1013.3
20260510115849 58 97 0.9 0.9 0.00 0.00 0.00 91 1013.2
20260510115346 57 97 0.9 1.7 0.00 0.00 0.00 91 1013.1
20260510114842 56 112 0.9 1.7 0.00 0.00 0.00 93 1013.0
20260510114340 56 113 0.9 1.7 0.00 0.00 0.00 97 1013.1
20260510113839 55 136 0.9 0.9 0.00 0.00 0.00 99 1012.7
20260510113336 54 136 0.0 1.7 0.00 0.00 0.00 99 1012.7
20260510112833 53 136 0.0 0.9 0.00 0.00 0.00 99 1012.7
20260510112330 53 136 0.0 0.0 0.00 0.00 0.00 99 1012.6
20260510111826 52 136 0.0 0.0 0.00 0.00 0.00 99 1012.6
20260510111322 52 136 0.0 0.0 0.00 0.00 0.00 99 1012.3
20260510110817 52 136 0.9 0.9 0.00 0.00 0.00 99 1012.5
20260510110315 52 137 0.0 0.0 0.00 0.00 0.00 99 1012.1
20260510105810 52 137 0.0 0.9 0.00 0.00 0.00 99 1012.0
20260510105309 52 137 0.0 0.0 0.00 0.00 0.00 99 1012.0
20260510104806 52 137 0.0 0.9 0.00 0.00 0.00 99 1011.9
20260510104304 52 137 0.9 0.9 0.00 0.00 0.00 99 1011.6
20260510103800 52 137 0.0 0.9 0.00 0.00 0.00 99 1011.9
20260510103257 52 137 0.0 0.9 0.00 0.00 0.00 99 1011.9
20260510102752 52 131 0.9 1.7 0.00 0.00 0.00 99 1011.5
20260510102248 51 122 0.9 0.9 0.00 0.00 0.00 99 1011.6
20260510101746 51 122 0.9 1.7 0.00 0.00 0.00 99 1011.5
20260510101244 51 123 1.7 1.7 0.00 0.00 0.00 99 1011.4
20260510100740 51 122 0.0 0.9 0.00 0.00 0.00 99 1011.4
20260510100238 51 122 0.0 0.0 0.00 0.00 0.00 99 1011.4
20260510095733 51 122 0.0 0.0 0.00 0.00 0.00 98 1011.3
20260510095229 51 122 0.0 0.9 0.00 0.00 0.00 98 1011.2
20260510094727 51 122 0.0 0.9 0.00 0.00 0.00 98 1011.2
20260510094223 51 122 0.9 0.9 0.00 0.00 0.00 98 1011.0
20260510093719 51 122 1.7 1.7 0.00 0.00 0.00 98 1011.0
20260510093217 52 95 0.9 0.9 0.00 0.00 0.00 98 1011.0
20260510092713 52 94 0.9 1.7 0.00 0.00 0.00 98 1011.0
20260510092209 51 6 0.9 0.9 0.00 0.00 0.00 98 1010.8
20260510091704 51 5 0.0 0.9 0.00 0.00 0.00 98 1010.9
20260510091201 51 5 0.0 0.9 0.00 0.00 0.00 98 1010.9
20260510090658 51 316 0.0 0.0 0.00 0.00 0.00 97 1010.8
20260510090154 51 316 0.0 0.9 0.00 0.00 0.00 97 1010.8
20260510085649 51 82 0.9 0.9 0.00 0.00 0.00 97 1010.5
20260510085144 52 82 0.0 0.0 0.00 0.00 0.00 97 1010.6
20260510084641 52 82 0.0 0.0 0.00 0.00 0.00 97 1010.7
20260510084137 52 83 0.9 0.9 0.00 0.00 0.00 97 1010.6
20260510083634 52 82 0.0 0.0 0.00 0.00 0.00 97 1010.5
20260510083131 52 83 0.0 0.0 0.00 0.00 0.00 97 1010.4
20260510082627 52 82 0.0 0.9 0.00 0.00 0.00 96 1010.5
20260510082123 52 82 0.0 0.0 0.00 0.00 0.00 96 1010.4
20260510081623 53 82 0.0 0.9 0.00 0.00 0.00 96 1010.5
20260510081119 52 82 0.0 0.0 0.00 0.00 0.00 95 1010.4
20260510080614 52 82 0.0 0.0 0.00 0.00 0.00 95 1010.4
20260510080110 52 82 0.0 0.9 0.00 0.00 0.00 94 1010.4
20260510075602 53 82 0.0 0.0 0.00 0.00 0.00 94 1010.5
20260510075059 53 82 0.0 0.0 0.00 0.00 0.00 93 1010.3
20260510074556 53 82 0.9 0.9 0.00 0.00 0.00 93 1010.3
20260510074051 54 82 0.0 0.0 0.00 0.00 0.00 92 1010.2
20260510073548 55 82 0.0 0.0 0.00 0.00 0.00 89 1010.2
20260510073045 56 82 0.0 0.0 0.00 0.00 0.00 88 1010.2
20260510072542 56 83 0.0 0.9 0.00 0.00 0.00 88 1010.3
20260510072037 56 83 1.7 1.7 0.00 0.00 0.00 89 1010.2
20260510071533 56 82 0.0 0.9 0.00 0.00 0.00 88 1010.4
20260510071032 57 82 0.0 0.0 0.00 0.00 0.00 85 1010.1
20260510070528 58 83 0.0 0.9 0.00 0.00 0.00 84 1010.1
20260510070025 58 79 0.9 1.7 0.00 0.00 0.00 84 1010.3
20260510065521 58 85 0.9 1.7 0.00 0.00 0.00 84 1010.3
20260510065017 58 85 0.9 1.7 0.00 0.00 0.00 84 1010.1
20260510064514 59 85 0.0 0.9 0.00 0.00 0.00 83 1010.3
20260510064011 59 86 0.9 1.7 0.00 0.00 0.00 83 1010.2
20260510063508 59 87 1.7 1.7 0.00 0.00 0.00 83 1010.4
20260510063005 59 93 1.7 2.6 0.00 0.00 0.00 82 1010.2
20260510062501 60 118 1.7 1.7 0.00 0.00 0.00 82 1010.1
20260510061956 60 98 1.7 2.6 0.00 0.00 0.00 82 1010.3
20260510061453 60 114 1.7 2.6 0.00 0.00 0.00 82 1010.1
20260510060949 60 93 1.7 2.6 0.00 0.00 0.00 81 1010.2
20260510060446 60 101 1.7 2.6 0.00 0.00 0.00 82 1010.5
20260510055942 60 104 1.7 2.6 0.00 0.00 0.00 82 1010.3
20260510055438 60 112 1.7 2.6 0.00 0.00 0.00 82 1010.3
20260510054937 60 116 1.7 1.7 0.00 0.00 0.00 81 1010.4
20260510054432 60 100 1.7 2.6 0.00 0.00 0.00 82 1010.3
20260510053927 60 110 1.7 2.6 0.00 0.00 0.00 81 1010.5
20260510053422 60 104 0.9 2.6 0.00 0.00 0.00 82 1010.4
20260510052919 60 125 1.7 1.7 0.00 0.00 0.00 81 1010.5
20260510052415 60 109 1.7 2.6 0.00 0.00 0.00 81 1010.4
20260510051911 60 107 1.7 2.6 0.00 0.00 0.00 81 1010.4
20260510051408 60 104 2.6 2.6 0.00 0.00 0.00 81 1010.6
20260510050904 60 106 1.7 2.6 0.00 0.00 0.00 80 1010.6
20260510050401 60 94 1.7 2.6 0.00 0.00 0.00 80 1010.5
20260510045858 60 112 1.7 2.6 0.00 0.00 0.00 80 1010.6
20260510045355 61 109 2.6 2.6 0.00 0.00 0.00 80 1010.6
20260510044852 61 104 0.9 1.7 0.00 0.00 0.00 79 1010.7
20260510044349 61 149 1.7 2.6 0.00 0.00 0.00 79 1010.7
20260510043845 61 103 1.7 2.6 0.00 0.00 0.00 79 1010.5
20260510043341 61 93 2.6 2.6 0.00 0.00 0.00 79 1010.4
20260510042839 61 78 1.7 1.7 0.00 0.00 0.00 79 1010.4
20260510042335 61 100 1.7 2.6 0.00 0.00 0.00 79 1010.5
20260510041831 61 100 1.7 1.7 0.00 0.00 0.00 79 1010.6
20260510041329 61 129 1.7 2.6 0.00 0.00 0.00 78 1010.8
20260510040826 62 114 1.7 2.6 0.00 0.00 0.00 78 1010.5
20260510040323 62 107 1.7 1.7 0.00 0.00 0.00 78 1010.7
20260510035818 62 118 2.6 3.5 0.00 0.00 0.00 78 1010.5
20260510035314 62 103 1.7 1.7 0.00 0.00 0.00 78 1010.8
20260510034810 62 149 0.9 2.6 0.00 0.00 0.00 78 1010.5
20260510034308 62 71 2.6 2.6 0.00 0.00 0.00 78 1010.7
20260510033804 62 98 1.7 1.7 0.00 0.00 0.00 77 1010.7
20260510033301 62 107 1.7 1.7 0.00 0.00 0.00 77 1010.7
20260510032757 62 106 1.7 3.5 0.00 0.00 0.00 77 1010.7
20260510032254 62 110 0.9 2.6 0.00 0.00 0.00 77 1010.7
20260510031750 62 59 1.7 2.6 0.00 0.00 0.00 76 1010.7
20260510031245 62 81 0.9 1.7 0.00 0.00 0.00 76 1010.7
20260510030745 62 112 0.9 1.7 0.00 0.00 0.00 76 1010.7
20260510030242 62 105 1.7 2.6 0.00 0.00 0.00 76 1010.6
20260510025739 62 91 1.7 2.6 0.00 0.00 0.00 76 1010.4
20260510025237 62 102 1.7 2.6 0.00 0.00 0.00 75 1010.4
20260510024733 62 88 1.7 2.6 0.00 0.00 0.00 75 1010.2
20260510024230 62 104 1.7 2.6 0.00 0.00 0.00 75 1010.3
20260510023726 63 92 1.7 1.7 0.00 0.00 0.00 75 1010.1
20260510023223 63 95 1.7 1.7 0.00 0.00 0.00 75 1010.1
20260510022719 63 104 0.9 1.7 0.00 0.00 0.00 75 1010.1
20260510022214 63 122 0.9 1.7 0.00 0.00 0.00 73 1010.0
20260510021709 63 82 1.7 2.6 0.00 0.00 0.00 73 1009.9
20260510021207 63 96 0.9 2.6 0.00 0.00 0.00 73 1010.0
20260510020702 63 112 1.7 2.6 0.00 0.00 0.00 73 1009.8
20260510020202 64 95 1.7 1.7 0.00 0.00 0.00 72 1009.9
20260510015658 64 145 3.5 5.2 0.00 0.00 0.00 72 1009.7
20260510015155 64 77 1.7 1.7 0.00 0.00 0.00 71 1009.8
20260510014655 64 80 0.0 5.2 0.00 0.00 0.00 71 1009.6
20260510014154 65 123 0.9 2.6 0.00 0.00 0.00 70 1009.6
20260510013654 65 83 0.9 3.5 0.00 0.00 0.00 70 1009.5
20260510013150 65 94 1.7 2.6 0.00 0.00 0.00 70 1009.5
20260510012649 64 131 0.9 1.7 0.00 0.00 0.00 70 1009.3
20260510012145 64 197 2.6 3.5 0.00 0.00 0.00 70 1009.2
20260510011640 65 102 0.9 1.7 0.00 0.00 0.00 70 1009.1
20260510011136 65 215 1.7 1.7 0.00 0.00 0.00 69 1008.8
20260510010632 65 95 0.9 1.7 0.00 0.00 0.00 69 1009.0
20260510010130 65 208 2.6 3.5 0.00 0.00 0.00 68 1009.0
20260510005625 66 99 0.0 1.7 0.00 0.00 0.00 67 1009.0
20260510005122 66 110 0.9 6.1 0.00 0.00 0.00 67 1008.9
20260510004621 66 109 0.0 2.6 0.00 0.00 0.00 68 1008.9
20260510004118 66 98 1.7 2.6 0.00 0.00 0.00 67 1008.8
20260510003615 66 133 3.5 3.5 0.00 0.00 0.00 66 1008.8
20260510003111 67 118 2.6 3.5 0.00 0.00 0.00 66 1008.6
20260510002606 67 98 1.7 2.6 0.00 0.00 0.00 65 1008.6
20260510002103 68 142 2.6 5.2 0.00 0.00 0.00 63 1008.4
20260510001600 68 161 0.9 2.6 0.00 0.00 0.00 63 1008.5
20260510001059 68 201 1.7 5.2 0.00 0.00 0.00 62 1008.3
20260510000554 68 132 1.7 3.5 0.00 0.00 0.00 62 1008.4
20260510000051 68 85 1.7 6.1 0.00 0.00 0.00 62 1008.2
20260509235547 68 158 0.9 3.5 0.00 0.00 0.00 62 1008.2
20260509235044 69 113 0.0 1.7 0.00 0.00 0.00 61 1008.1
20260509234540 69 146 2.6 5.2 0.00 0.00 0.00 60 1008.5
20260509234038 69 235 0.9 2.6 0.00 0.00 0.00 61 1008.2
20260509233535 69 124 3.5 7.8 0.00 0.00 0.00 60 1008.1
20260509233033 70 147 0.9 0.9 0.00 0.00 0.00 61 1008.2
20260509232529 70 203 2.6 5.2 0.00 0.00 0.00 58 1008.1
20260509232026 70 238 0.0 1.7 0.00 0.00 0.00 59 1008.1
20260509231522 70 230 0.9 1.7 0.00 0.00 0.00 59 1008.1
20260509231020 70 187 1.7 2.6 0.00 0.00 0.00 58 1008.0
20260509230517 71 213 0.0 3.5 0.00 0.00 0.00 59 1007.9
20260509230014 71 249 0.9 0.9 0.00 0.00 0.00 58 1008.2
20260509225509 72 223 0.0 2.6 0.00 0.00 0.00 55 1008.1
20260509225005 72 192 0.9 1.7 0.00 0.00 0.00 57 1008.1
20260509224500 72 239 0.9 3.5 0.00 0.00 0.00 54 1008.3
20260509223957 72 239 3.5 5.2 0.00 0.00 0.00 55 1008.3
20260509223454 72 275 3.5 3.5 0.00 0.00 0.00 54 1008.3
20260509222952 73 219 3.5 3.5 0.00 0.00 0.00 54 1008.4
20260509222447 72 122 1.7 2.6 0.00 0.00 0.00 57 1008.4
20260509221943 72 129 1.7 2.6 0.00 0.00 0.00 55 1008.3
20260509221440 72 199 2.6 5.2 0.00 0.00 0.00 56 1008.5
20260509220935 72 226 3.5 3.5 0.00 0.00 0.00 55 1008.3
20260509220432 72 205 1.7 3.5 0.00 0.00 0.00 56 1008.4
20260509215928 73 336 0.9 3.5 0.00 0.00 0.00 52 1008.4
20260509215423 73 128 0.0 7.0 0.00 0.00 0.00 53 1008.4
20260509214921 73 237 1.7 6.1 0.00 0.00 0.00 53 1008.5
20260509214418 74 251 2.6 5.2 0.00 0.00 0.00 52 1008.6
20260509213915 74 269 1.7 5.2 0.00 0.00 0.00 55 1008.5
20260509213416 73 215 2.6 5.2 0.00 0.00 0.00 54 1008.6
20260509212914 73 208 3.5 3.5 0.00 0.00 0.00 53 1008.4
20260509212411 74 340 3.5 7.8 0.00 0.00 0.00 56 1008.7
20260509211907 73 330 2.6 3.5 0.00 0.00 0.00 55 1008.5
20260509211403 73 244 5.2 7.0 0.00 0.00 0.00 54 1008.5
20260509210859 73 260 2.6 5.2 0.00 0.00 0.00 55 1008.5
20260509210357 72 182 3.5 6.1 0.00 0.00 0.00 54 1008.6
20260509205852 73 244 2.6 7.0 0.00 0.00 0.00 57 1008.5
20260509205346 72 148 0.0 7.8 0.00 0.00 0.00 57 1008.5
20260509204843 72 255 1.7 2.6 0.00 0.00 0.00 56 1008.5
20260509204339 72 251 1.7 3.5 0.00 0.00 0.00 58 1008.5
20260509203836 73 251 3.5 5.2 0.00 0.00 0.00 56 1008.7
20260509203333 72 224 0.9 1.7 0.00 0.00 0.00 61 1008.8
20260509202829 71 257 1.7 2.6 0.00 0.00 0.00 58 1008.9
20260509202326 72 305 2.6 3.5 0.00 0.00 0.00 57 1008.7
20260509201825 72 143 2.6 6.1 0.00 0.00 0.00 56 1008.8
20260509201322 71 216 3.5 5.2 0.00 0.00 0.00 60 1008.7
20260509200818 70 216 1.7 1.7 0.00 0.00 0.00 58 1008.9
20260509200314 69 210 2.6 3.5 0.00 0.00 0.00 60 1009.1
20260509195810 69 212 3.5 6.1 0.00 0.00 0.00 58 1009.1
20260509195306 69 252 1.7 5.2 0.00 0.00 0.00 60 1009.2
20260509194805 69 165 1.7 3.5 0.00 0.00 0.00 61 1009.2
20260509194301 69 172 1.7 2.6 0.00 0.00 0.00 62 1009.2
20260509193758 69 249 0.9 5.2 0.00 0.00 0.00 60 1009.2
20260509193258 70 244 2.6 5.2 0.00 0.00 0.00 59 1009.1
20260509192754 70 244 4.3 5.2 0.00 0.00 0.00 58 1009.2
20260509192250 70 296 2.6 5.2 0.00 0.00 0.00 58 1009.4
20260509191745 71 354 0.9 3.5 0.00 0.00 0.00 58 1009.3
20260509191242 71 241 3.5 6.1 0.00 0.00 0.00 58 1009.2
20260509190738 70 206 3.5 6.1 0.00 0.00 0.00 58 1009.0
20260509190235 69 149 3.5 5.2 0.00 0.00 0.00 63 1009.1
20260509185732 69 94 4.3 7.0 0.00 0.00 0.00 61 1009.1
20260509185228 69 166 0.9 6.1 0.00 0.00 0.00 63 1009.2
20260509184726 69 193 3.5 5.2 0.00 0.00 0.00 62 1009.1
20260509184223 71 187 4.3 7.0 0.00 0.00 0.00 58 1009.3
20260509183720 70 259 1.7 6.1 0.00 0.00 0.00 59 1009.1
20260509183215 70 126 1.7 5.2 0.00 0.00 0.00 62 1008.9
20260509182711 70 245 1.7 6.1 0.00 0.00 0.00 58 1009.1
20260509182209 70 201 4.3 6.1 0.00 0.00 0.00 59 1009.2
20260509181706 68 115 0.9 2.6 0.00 0.00 0.00 62 1009.1
20260509181203 68 69 0.9 7.0 0.00 0.00 0.00 65 1009.1
20260509180700 67 163 4.3 5.2 0.00 0.00 0.00 66 1009.3
20260509180156 67 277 1.7 8.7 0.00 0.00 0.00 62 1009.0
20260509175652 67 114 1.7 3.5 0.00 0.00 0.00 65 1009.3
20260509175149 66 281 0.9 5.2 0.00 0.00 0.00 67 1009.4
20260509174645 66 160 7.0 7.8 0.00 0.00 0.00 64 1009.5
20260509174145 65 201 1.7 7.8 0.00 0.00 0.00 65 1009.2
20260509173642 65 246 4.3 6.1 0.00 0.00 0.00 64 1009.3
20260509173137 65 200 5.2 7.0 0.00 0.00 0.00 65 1009.5
20260509172634 65 144 4.3 5.2 0.00 0.00 0.00 66 1009.5
20260509172130 65 185 3.5 6.1 0.00 0.00 0.00 63 1009.4
20260509171626 64 125 0.9 6.1 0.00 0.00 0.00 69 1009.5
20260509171123 64 269 4.3 7.0 0.00 0.00 0.00 64 1009.7
20260509170619 64 103 2.6 9.6 0.00 0.00 0.00 65 1009.5
20260509170115 63 117 6.1 8.7 0.00 0.00 0.00 63 1009.4
20260509165614 62 231 2.6 3.5 0.00 0.00 0.00 68 1009.7
20260509165110 62 267 2.6 5.2 0.00 0.00 0.00 71 1009.6